Regional Weather Roundup
Issued by NWS

Home | Current Version | Previous Version | Graphics & Text | Print | Product List | Glossary On
Versions: 1 2 3 4 5 6 7 8 9 10 11 12 13 14 15 16 17 18 19 20 21 22 23 24 25 26 27 28 29 30 31 32 33 34 35 36 37 38 39 40 41 42 43 44 45 46 47 48 49 50
000
ASUS43 KLMK 190102
RWRKY
KENTUCKY REGIONAL WEATHER ROUNDUP
NATIONAL WEATHER SERVICE LOUISVILLE KY
900 PM EDT SAT APR 18 2015

NOTE "FAIR" INDICATES FEW OR NO CLOUDS BELOW 12,000 FEET
WITH NO SIGNIFICANT WEATHER AND/OR OBSTRUCTIONS TO VISIBILITY.

KYZ001>023-026-027-061>063-070>075-190200-
WESTERN AND SOUTH CENTRAL KENTUCKY

CITY           SKY/WX    TMP DP  RH WIND       PRES   REMARKS
PADUCAH        MOCLDY    70  60  70 CALM      29.83F
HENDERSON      MOCLDY    68  55  64 CALM      29.87S
OWENSBORO      MOCLDY    74  53  47 E7        29.88S
HOPKINSVILLE   MOCLDY    73  59  60 E3        29.87S
BOWLING GREEN  MOCLDY    71  59  65 CALM      29.88F
GLASGOW        NOT AVBL
$$

KYZ024-025-028>034-038-045-046-053-190200-
NORTH CENTRAL KENTUCKY

CITY           SKY/WX    TMP DP  RH WIND       PRES   REMARKS
LOUISVILLE/SDF CLOUDY    74  47  38 NE5       29.91F
LOUISVILLE/LOU CLOUDY    74  46  36 NE6       29.92F
FORT KNOX      MOCLDY    71  45  39 NE2       29.91R
$$

KYZ035>037-039>044-047>052-055>060-089>105-190200-
NORTHEAST KENTUCKY

CITY           SKY/WX    TMP DP  RH WIND       PRES   REMARKS
LEXINGTON      MOCLDY    66  50  56 NE7       29.94S
COVINGTON      MOCLDY    70  46  42 E8        29.97R
FRANKFORT      CLOUDY    72  46  39 NE3       29.93S
$$

KYZ054-064>069-076>088-106>120-190200-
SOUTHEAST KENTUCKY

CITY           SKY/WX    TMP DP  RH WIND       PRES   REMARKS
JACKSON        MOCLDY    71  48  43 CALM      29.96R
LONDON         CLOUDY    73  49  42 CALM      29.93R
SOMERSET       NOT AVBL
MIDDLESBORO    DRIZZLE   74  55  50 S9        29.95R
MONTICELLO     CLOUDY    72  57  58 NE5       29.95R
$$




USA.gov is the U.S. government's official web portal to all federal, state and local government web resources and services.